User: anonymous   Login
Location: Great Northern Moose Lodge
(44.6765°N, 71.1811°W)
Time: 01:10:07
(UTC-04:00)
Language:

Terra - Orbit

View from above orbital plane
View from above orbital plane
View from above satellite
View from above satellite

Ground track
Ground track

The orbit data is extracted from the following two-line orbital elements,

1 25994U 99068A   16271.68137755  .00000329  00000-0  73107-4 0  9996
2 25994  98.2035 344.5039 0001328 100.2652 259.9186 14.57111225892442
Epoch (UTC): 27 September 2016 16:21:11
Eccentricity: 0.0001328
inclination: 98.2035°
perigee height: 701 km
apogee height: 703 km
right ascension of ascending node: 344.5039°
argument of perigee: 100.2652°
revolutions per day: 14.57111225
mean anomaly at epoch: 259.9186°
orbit number at epoch: 89244

The dashed part of the orbit path shows where the satellite is in the earth's shadow,  

DLR